This is the latest recevied weather packets stored in our database for station/object DM4WH-13. If no packets are shown the sender has not sent any weather packets the latest 10 day(s).
| Time | Temp. | Humidity | Pressure | Rain* | Wind** | Luminosity | Snow |
|---|---|---|---|---|---|---|---|
| 1777769115 | 13.89° C | 43% | 1017.5 hPa | 0 mm | 0.45 m/s, 156° | - | - |
| 1777768802 | 13.89° C | 42% | 1017.5 hPa | 0 mm | 0.45 m/s, 156° | - | - |
| 1777768515 | 13.89° C | 42% | 1017.5 hPa | 0 mm | 0.45 m/s, 156° | - | - |
| 1777768202 | 13.89° C | 42% | 1017.5 hPa | 0 mm | 0.89 m/s, 156° | - | - |
| 1777767915 | 13.89° C | 41% | 1017.5 hPa | 0 mm | 0.45 m/s, 102° | - | - |
| 1777767602 | 15° C | 41% | 1017.6 hPa | 0 mm | 0.45 m/s, 138° | - | - |
| 1777767315 | 13.89° C | 41% | 1017.6 hPa | 0 mm | 0.45 m/s, 113° | - | - |
| 1777767002 | 13.89° C | 41% | 1017.5 hPa | 0 mm | 0.45 m/s, 90° | - | - |
| 1777766727 | 15° C | 41% | 1017.7 hPa | 0 mm | 0 m/s | - | - |
| 1777766415 | 13.89° C | 41% | 1017.7 hPa | 0 mm | 0.45 m/s, 144° | - | - |
| 1777766102 | 15° C | 41% | 1017.8 hPa | 0 mm | 0.45 m/s, 174° | - | - |
| 1777765814 | 15° C | 41% | 1017.9 hPa | 0 mm | 0.45 m/s, 102° | - | - |
| 1777765502 | 15° C | 40% | 1017.9 hPa | 0 mm | 0.89 m/s, 162° | - | - |
| 1777765215 | 15° C | 41% | 1017.9 hPa | 0 mm | 0.45 m/s, 144° | - | - |
| 1777764902 | 13.89° C | 41% | 1018 hPa | 0 mm | 0.45 m/s, 240° | - | - |
| 1777764614 | 13.89° C | 41% | 1018 hPa | 0 mm | 0.45 m/s, 124° | - | - |
| 1777764304 | 13.89° C | 41% | 1018.1 hPa | 0 mm | 0.45 m/s, 169° | - | - |
| 1777764015 | 13.89° C | 41% | 1018.1 hPa | 0 mm | 0.45 m/s, 156° | - | - |
| 1777763703 | 13.89° C | 42% | 1018.2 hPa | 0 mm | 0.45 m/s, 138° | - | - |
| 1777763415 | 13.89° C | 42% | 1018.2 hPa | 0 mm | 0 m/s | - | - |
| 1777763103 | 13.89° C | 42% | 1018.3 hPa | 0 mm | 0.45 m/s, 164° | - | - |
| 1777762815 | 13.89° C | 42% | 1018.2 hPa | 0 mm | 0.45 m/s, 162° | - | - |
| 1777762502 | 13.89° C | 42% | 1018.2 hPa | 0 mm | 0.45 m/s, 174° | - | - |
| 1777762215 | 13.89° C | 43% | 1018.3 hPa | 0 mm | 0.45 m/s, 168° | - | - |
| 1777761902 | 13.89° C | 42% | 1018.4 hPa | 0 mm | 0.45 m/s, 174° | - | - |
* Rain latest hour (hover to see other rain measurements)
** Current wind speed in m/s (hover to see current wind gust speed)